Terug naar catalogus

WESTFORD NEEDLES

LostPO
NORAD 18543·DEBRIS·🇺🇸 United States

Gelanceerd May 9, 1963 vanaf Vandenberg Space Force Base

Loading…

Volgende Passages (komende 24 uur)

TLE

VerouderdSource: Space-Track

Epoch: May 22, 2025, 02:05 UTC

1 18543U 63014DJ  25142.08711664 -.00000675  00000-0 -28283+0 0  9994
2 18543  87.5212 183.2042 0452825 222.1899 134.3262  8.66512731 86001

Volg WESTFORD NEEDLES in realtime met AllMySat

Download on the App Store